Marion-Critt Cnty AP, Marion,, KY

2:05 AM CDT on June 29, 2017 (GMT -0500)
Marion-Critt Cnty AP, Marion,

Weather History for K5M9 - February, 2014

Change the Weather History Date:

Tuesday, February 11, 2014

  Actual Average (KEHR) Record (KEHR)
Temperature  
Mean Temperature 10 °F -  
Max Temperature 19 °F 46 °F 78 °F (1932)
Min Temperature 2 °F 27 °F 2 °F (1955)
Degree Days  
Heating Degree Days 54    
Moisture  
Dew Point 5 °F    
Average Humidity 77    
Maximum Humidity 83    
Minimum Humidity 67    
Precipitation  
Precipitation 0.00 in - - ()
Sea Level Pressure  
Sea Level Pressure 30.40 in    
Wind  
Wind Speed 0 mph (North)    
Max Wind Speed 0 mph    
Max Gust Speed -    
Visibility 10 miles    
Events      
Averages and records for this station are not official NWS values.
T = Trace of Precipitation, MM = Missing Value Source: NWS Daily Summary

Daily Weather History Graph

Daily Weather History Graph

Search for Another Location

Airport or City:

Trip Planner

Search our weather history database for the weather conditions in past years. The results will help you decide how hot, cold, wet, or windy it might be!

Date:

Astronomy

Feb. 11, 2014 Rise Set
Actual Time 6:45 AM CST 5:27 PM CST
Civil Twilight 6:19 AM CST 5:54 PM CST
Nautical Twilight 5:48 AM CST 6:25 PM CST
Astronomical Twilight 5:18 AM CST 6:55 PM CST
Moon 2:49 PM CST (2/11) 4:20 AM CST (2/11)
Length of Visible Light 11h 35m
Length of Day
10h 41m
Waxing Gibbous, 91% of the Moon is Illuminated
Feb 11
Waxing Gibbous
Feb 14
Full
Feb 22
Last Quarter
Mar 1
New
Mar 8
First Quarter

Hourly Weather History & Observations

Time (CST) Temp. Dew Point Humidity Pressure Visibility Wind Dir Wind Speed Gust Speed Precip Events Conditions
12:15 AM 6.8 °F 2.3 °F 82% 30.41 in 10.0 mi Calm Calm - N/A   Clear
12:35 AM 6.6 °F 1.9 °F 81% 30.41 in 10.0 mi Calm Calm - N/A   Clear
12:55 AM 6.3 °F 1.8 °F 82% 30.40 in 10.0 mi Calm Calm - N/A   Clear
1:15 AM 5.9 °F 1.4 °F 82% 30.40 in 10.0 mi Calm Calm - N/A   Clear
1:35 AM 5.9 °F 1.2 °F 81% 30.40 in 10.0 mi Calm Calm - N/A   Clear
1:55 AM 5.7 °F 0.5 °F 79% 30.41 in 10.0 mi Calm Calm - N/A   Clear
2:15 AM 5.5 °F 0.5 °F 80% 30.41 in 10.0 mi Calm Calm - N/A   Clear
2:35 AM 5.5 °F 0.5 °F 80% 30.41 in 10.0 mi Calm Calm - N/A   Clear
2:55 AM 5.0 °F -0.2 °F 79% 30.41 in 10.0 mi Calm Calm - N/A   Clear
3:15 AM 4.8 °F -0.9 °F 77% 30.41 in 10.0 mi Calm Calm - N/A   Clear
3:35 AM 4.1 °F -1.3 °F 78% 30.40 in 10.0 mi Calm Calm - N/A   Clear
3:55 AM 3.7 °F -1.5 °F 79% 30.42 in 10.0 mi Calm Calm - N/A   Clear
4:15 AM 3.6 °F -1.5 °F 80% 30.42 in 10.0 mi Calm Calm - N/A   Clear
4:35 AM 3.2 °F -2.0 °F 79% 30.42 in 10.0 mi Calm Calm - N/A   Clear
4:55 AM 3.2 °F -1.8 °F 80% 30.43 in 10.0 mi Calm Calm - N/A   Clear
5:15 AM 3.6 °F -1.8 °F 78% 30.43 in 10.0 mi Calm Calm - N/A   Clear
5:35 AM 3.2 °F -1.8 °F 80% 30.44 in 10.0 mi Calm Calm - N/A   Clear
5:55 AM 2.8 °F -1.5 °F 82% 30.44 in 10.0 mi Calm Calm - N/A   Clear
6:15 AM 2.8 °F -2.2 °F 79% 30.44 in 10.0 mi Calm Calm - N/A   Clear
6:35 AM 2.7 °F -2.4 °F 79% 30.44 in 10.0 mi Calm Calm - N/A   Clear
6:55 AM 2.3 °F -2.6 °F 80% 30.45 in 10.0 mi Calm Calm - N/A   Clear
7:15 AM 2.8 °F -2.2 °F 79% 30.46 in 10.0 mi Calm Calm - N/A   Clear
7:35 AM 3.9 °F -1.5 °F 78% 30.46 in 10.0 mi Calm Calm - N/A   Clear
7:55 AM 5.2 °F -0.4 °F 78% 30.46 in 10.0 mi Calm Calm - N/A   Clear
8:15 AM 5.9 °F -0.0 °F 77% 30.46 in 10.0 mi Calm Calm - N/A   Clear
8:35 AM 6.6 °F 0.7 °F 77% 30.47 in 10.0 mi Calm Calm - N/A   Clear
8:55 AM 7.7 °F 2.1 °F 78% 30.47 in 10.0 mi Calm Calm - N/A   Clear
9:15 AM 9.0 °F 3.2 °F 77% 30.47 in 10.0 mi Calm Calm - N/A   Clear
9:35 AM 9.5 °F 3.4 °F 76% 30.47 in 10.0 mi Calm Calm - N/A   Clear
9:55 AM 10.6 °F 4.5 °F 76% 30.47 in 10.0 mi Calm Calm - N/A   Clear
10:15 AM 11.1 °F 5.4 °F 78% 30.47 in 10.0 mi Calm Calm - N/A   Clear
10:35 AM 12.0 °F 6.1 °F 77% 30.47 in 10.0 mi Calm Calm - N/A   Clear
10:55 AM 12.7 °F 6.6 °F 77% 30.46 in 10.0 mi Calm Calm - N/A   Clear
11:15 AM 14.7 °F 8.6 °F 77% 30.46 in 10.0 mi Calm Calm - N/A   Clear
11:35 AM 14.7 °F 7.9 °F 74% 30.45 in 10.0 mi Calm Calm - N/A   Clear
11:55 AM 16.9 °F 10.8 °F 77% 30.44 in 10.0 mi Calm Calm - N/A   Clear
12:15 PM 17.2 °F 10.0 °F 73% 30.44 in 10.0 mi Calm Calm - N/A   Clear
12:35 PM 18.0 °F 11.1 °F 75% 30.42 in 10.0 mi Calm Calm - N/A   Clear
12:55 PM 18.5 °F 10.8 °F 72% 30.42 in 10.0 mi Calm Calm - N/A   Clear
1:15 PM 18.7 °F 10.8 °F 71% 30.40 in 10.0 mi Calm Calm - N/A   Clear
1:35 PM 19.0 °F 10.4 °F 69% 30.40 in 10.0 mi Calm Calm - N/A   Clear
1:55 PM 19.2 °F 10.6 °F 69% 30.39 in 10.0 mi Calm Calm - N/A   Clear
2:15 PM 19.2 °F 10.9 °F 70% 30.38 in 10.0 mi Calm Calm - N/A   Clear
2:35 PM 19.8 °F 10.9 °F 69% 30.38 in 10.0 mi Calm Calm - N/A   Clear
2:55 PM 19.8 °F 10.2 °F 67% 30.38 in 10.0 mi Calm Calm - N/A   Clear
3:15 PM 19.9 °F 10.4 °F 67% 30.38 in 10.0 mi Calm Calm - N/A   Clear
3:35 PM 19.8 °F 10.9 °F 69% 30.38 in 10.0 mi Calm Calm - N/A   Clear
3:55 PM 19.2 °F 10.4 °F 69% 30.37 in 10.0 mi Calm Calm - N/A   Clear
4:15 PM 18.5 °F 10.0 °F 70% 30.37 in 10.0 mi Calm Calm - N/A   Clear
4:35 PM 18.0 °F 9.3 °F 69% 30.37 in 10.0 mi Calm Calm - N/A   Clear
4:55 PM 17.6 °F 9.7 °F 71% 30.35 in 10.0 mi Calm Calm - N/A   Clear
5:15 PM 16.9 °F 9.9 °F 74% 30.35 in 10.0 mi Calm Calm - N/A   Clear
5:35 PM 16.0 °F 9.7 °F 76% 30.34 in 10.0 mi Calm Calm - N/A   Clear
5:55 PM 15.3 °F 8.6 °F 75% 30.35 in 10.0 mi Calm Calm - N/A   Clear
6:15 PM 14.9 °F 9.1 °F 78% 30.32 in 10.0 mi Calm Calm - N/A   Clear
6:35 PM 14.9 °F 9.1 °F 78% 30.34 in 10.0 mi Calm Calm - N/A   Clear
6:55 PM 14.0 °F 9.1 °F 81% 30.35 in 10.0 mi Calm Calm - N/A   Clear
7:15 PM 14.0 °F 9.3 °F 82% 30.33 in 10.0 mi Calm Calm - N/A   Clear
7:35 PM 14.5 °F 9.5 °F 80% 30.34 in 10.0 mi Calm Calm - N/A   Clear
7:55 PM 14.4 °F 9.3 °F 80% 30.35 in 10.0 mi Calm Calm - N/A   Clear
8:15 PM 14.0 °F 8.6 °F 79% 30.33 in 10.0 mi Calm Calm - N/A   Clear
8:35 PM 13.1 °F 8.4 °F 82% 30.34 in 10.0 mi Calm Calm - N/A   Clear
8:55 PM 13.1 °F 8.4 °F 82% 30.32 in 10.0 mi Calm Calm - N/A   Clear
9:15 PM 13.1 °F 8.2 °F 81% 30.32 in 10.0 mi Calm Calm - N/A   Clear
9:35 PM 13.1 °F 8.2 °F 81% 30.32 in 10.0 mi Calm Calm - N/A   Clear
9:55 PM 12.7 °F 8.1 °F 82% 30.33 in 10.0 mi Calm Calm - N/A   Clear
10:15 PM 12.6 °F 7.7 °F 81% 30.34 in 10.0 mi Calm Calm - N/A   Clear
10:35 PM 11.8 °F 7.3 °F 82% 30.33 in 10.0 mi Calm Calm - N/A   Clear
10:55 PM 12.2 °F 7.7 °F 82% 30.32 in 10.0 mi Calm Calm - N/A   Clear
11:15 PM 12.4 °F 7.7 °F 82% 30.31 in 10.0 mi Calm Calm - N/A   Clear
11:35 PM 12.0 °F 7.5 °F 82% 30.30 in 10.0 mi Calm Calm - N/A   Clear
11:55 PM 11.1 °F 6.8 °F 83% 30.31 in 10.0 mi Calm Calm - N/A   Clear